Regional Weather Roundup
Issued by NWS

Home | Current Version | Previous Version | Graphics & Text | Print | Product List | Glossary On
Versions: 1 2 3 4 5 6 7 8 9 10 11 12 13 14 15 16 17 18 19 20 21 22 23 24 25 26 27 28 29 30 31 32 33 34 35 36 37 38 39 40 41 42 43 44 45 46 47 48 49 50
000
ASUS43 KOAX 011210
RWRNE

WEATHER ROUNDUP FOR NEBRASKA
NATIONAL WEATHER SERVICE OMAHA NE
700 AM CDT WED OCT 01 2014

NOTES: SATELLITE DATA IS BEING USED TO AUGMENT CLOUD COVER ABOVE
       12000 FEET.
       "FAIR" INDICATES FEW OR NO CLOUDS BELOW 12,000 FEET WITH NO
       SIGNIFICANT WEATHER AND/OR OBSTRUCTIONS TO VISIBILITY.

  * THESE STATIONS DO NOT REPORT WEATHER SUCH AS RAIN...SNOW OR FOG.

NEZ001>004-019>022-054>056-011300-
NEBRASKA PANHANDLE

CITY           SKY/WX    TMP DP  RH WIND       PRES   REMARKS
SCOTTSBLUFF    CLEAR     43  42  97 NW7       29.86R
6HR MIN TEMP:  43; 6HR MAX TEMP:  57;

ALLIANCE       CLEAR     41  40  96 W7        29.83R
6HR MIN TEMP:  40; 6HR MAX TEMP:  52;

CHADRON        CLEAR     48  44  86 SW9       29.81R
6HR MIN TEMP:  47; 6HR MAX TEMP:  51;

KIMBALL        CLEAR     43  39  85 NW9       29.86R
SIDNEY         CLEAR     46  40  79 W12       29.86R
6HR MIN TEMP:  46; 6HR MAX TEMP:  57;

$$

NEZ057>060-069>072-079>082-011300-
SOUTHWEST NEBRASKA

CITY           SKY/WX    TMP DP  RH WIND       PRES   REMARKS
NORTH PLATTE   PTCLDY    46  43  89 NW7       29.78R
6HR MIN TEMP:  46; 6HR MAX TEMP:  60; 6HR PCP: TRACE;

IMPERIAL       CLEAR     50  44  80 NW7       29.81R
6HR MIN TEMP:  49; 6HR MAX TEMP:  58;

LEXINGTON      FOG       52  51  97 CALM      29.76R VSB<1/4
MCCOOK         CLEAR     48  46  93 W3        29.77R
6HR MIN TEMP:  48; 6HR MAX TEMP:  60;

OGALLALA       CLEAR     47  46  96 CALM      29.82R
$$

NEZ005>010-023>029-035>040-094-011300-
NORTH CENTRAL NEBRASKA

CITY           SKY/WX    TMP DP  RH WIND       PRES   REMARKS
VALENTINE      PTCLDY    48  45  89 W8        29.77R
6HR MIN TEMP:  47; 6HR MAX TEMP:  53;

AINSWORTH      PTCLDY    51  47  86 SW3       29.76R
BROKEN BOW     MOCLDY    53  50  89 NW5       29.75R
6HR MIN TEMP:  53; 6HR MAX TEMP:  65; 6HR PCP:  0.02;

O`NEILL        CLOUDY    61  54  78 S6        29.72S
ORD            MOCLDY    58  56  93 CALM      29.72S
6HR MIN TEMP:  57; 6HR MAX TEMP:  62;

THEDFORD       CLOUDY    54  47  77 CALM      29.79R
$$

NEZ041-046>049-061>064-073>077-083>087-011300-
SOUTH CENTRAL NEBRASKA

CITY           SKY/WX    TMP DP  RH WIND       PRES   REMARKS
GRAND ISLAND   PTCLDY    62  60  93 CALM      29.74F
6HR MIN TEMP:  57; 6HR MAX TEMP:  63;

AURORA         CLOUDY    62  62 100 N5        29.75R FOG
HASTINGS       CLOUDY    62  59  90 NW7       29.74S
6HR MIN TEMP:  62; 6HR MAX TEMP:  63;

HEBRON         FOG       60  58  93 CALM      29.71R VSB<1/4
HOLDREGE         N/A     58  57  96 CALM      29.76S FOG
KEARNEY *      CLOUDY    59  57  94 W3        29.76R VSB 1/2
YORK           CLOUDY    57  57 100 NW10      29.75R
$$

NEZ011>018-030>034-042>045-011300-
NORTHEAST NEBRASKA

CITY           SKY/WX    TMP DP  RH WIND       PRES   REMARKS
NORFOLK        CLOUDY    60  59  96 SE5       29.75S
6HR MIN TEMP:  58; 6HR MAX TEMP:  63;

ALBION         MOCLDY    60  58  94 CALM      29.73F FOG
BLAIR          CLOUDY    62  59  93 CALM      29.72S
COLUMBUS *     CLOUDY    57  55  94 NW8       29.76R
FREMONT        CLOUDY    62  60  94 CALM      29.73R
TEKAMAH        CLOUDY    60  58  92 CALM      29.73R
6HR MIN TEMP:  60; 6HR MAX TEMP:  66; 6HR PCP:  0.24;

WAYNE          CLOUDY    58  58  97 CALM      29.75R
$$

NEZ050>053-065>068-078-088>093-011300-
SOUTHEAST NEBRASKA

CITY           SKY/WX    TMP DP  RH WIND       PRES   REMARKS
LINCOLN        CLOUDY    62  59  90 SE3       29.72S
6HR MIN TEMP:  61; 6HR MAX TEMP:  63; 6HR PCP:  1.50;

OMAHA EPPLEY   LGT RAIN  62  59  90 SE10      29.73R
6HR MIN TEMP:  62; 6HR MAX TEMP:  66; 6HR PCP:  0.75;

BEATRICE       CLOUDY    65  64  95 SE5       29.70S
FALLS CITY     CLOUDY    65  63  93 E5        29.72R
6HR MIN TEMP:  65; 6HR MAX TEMP:  67; 6HR PCP:  0.23;

NEBRASKA CITY  CLOUDY    62  62 100 SE5       29.73R
PLATTSMOUTH      N/A     61  59  92 CALM      29.74S
$$

NEZ044-045-051>053-067-011300-
OMAHA AREA

CITY           SKY/WX    TMP DP  RH WIND       PRES   REMARKS
OMAHA EPPLEY   LGT RAIN  62  59  90 SE10      29.73R
6HR MIN TEMP:  62; 6HR MAX TEMP:  66; 6HR PCP:  0.75;

BLAIR          CLOUDY    62  59  93 CALM      29.72S
FREMONT        CLOUDY    62  60  94 CALM      29.73R
MILLARD        DRIZZLE   62  60  93 SE7       29.72S
OFFUTT AFB     LGT RAIN  62  62 100 E7        29.73S
PLATTSMOUTH      N/A     61  59  92 CALM      29.74S
WAHOO          CLOUDY    60  57  91 CALM      29.72R
$$



USA.gov is the U.S. government's official web portal to all federal, state and local government web resources and services.